Погода в Толмачах

Россия / Тверская область     57°25′47″N   35°41′20″E
темп.,
°C
ветер,
м/с
пор.,
м/с
влажн.,
%
обл.,
%
осадки,
мм/ч
давл.,
гПа
погр.,
м
25 июля, вс
вс2500:00+11з227356 0.0 101832
03:00+11з2270100 0.0 101846
06:00+13з1269100 0.0 101958
09:00+16зюз1256100 0.0 1019296
12:00+20з234459 0.0 10201239
15:00+19з2554100 0.0 1019436
18:00+20зюз2353100 0.0 1020386
21:00+17юз2257100 0.0 102025
26 июля, пн
пн2600:00+17юз1256100 0.0 102129
03:00+16юз116170 0.0 102215
06:00+14зюз11743 0.0 102217
09:00+21сз12485 0.0 1022480
12:00+25сз12343 0.0 10221972
15:00+26зсз233225 0.0 10212406
18:00+26сз233843 0.0 10202324
21:00+20ссв115580 0.0 102111
27 июля, вт
вт2700:00+16зюз11655 0.0 102111
03:00+16з116631 0.0 102211
06:00+17з116820 0.0 102211
09:00+23юз114788 0.0 1021377
12:00+26юз224050 0.0 10201079
15:00+29ююз233273 0.0 10182699
18:00+27ююз12407 0.0 10171086
21:00+18ююз37831 0.0 1018151
28 июля, ср
ср2800:00+16зюз228775 0.0 101846
03:00+16ю248612 0.0 101777
06:00+16ююз25875 0.0 1016118
09:00+23ю245736 0.0 1014549
12:00+26юз3546100 0.0 10121564
15:00+20ююз51174100 0.6 1012738
18:00+19ююз51076100 0.0 1010710
21:00+17ююв378990 0.0 1009449
29 июля, чт
чт2900:00+16юв2694100 0.1 1007309
03:00+16юв1499100 3.1 1005272
06:00+17юз1299100 0.4 1004184
09:00+17з2598100 1.1 1004377
12:00+18зсз379440 0.1 1005547
15:00+22зсз487452 1.4 10051048
18:00+24з5951100 0.1 10041169
21:00+19зюз39683 0.1 1005236